| time (UTC) | temp F | wind direction | speed MPH | gust MPH | rain 1hr in | rain 24hr in | rain mn in | humidity % | barometer mb |
| 20260901205605 | 77 | 324 | 0.0 | 0.0 | 0.00 | 0.00 | 0.00 | ||
| 20260901203001 | 66 | 139 | 0.0 | 0.0 | 0.00 | 0.00 | 0.00 | ||
| 20260901202447 | 66 | 127 | 0.0 | 0.0 | 0.00 | 0.00 | 0.00 | ||
| 20260901201934 | 67 | 131 | 0.0 | 0.0 | 0.00 | 0.00 | 0.00 | ||
| 20260901201423 | 69 | 123 | 0.0 | 0.0 | 0.00 | 0.00 | 0.00 | ||
| 20260901200909 | 71 | 144 | 0.0 | 0.0 | 0.00 | 0.00 | 0.00 | ||
| 20260901200356 | 73 | 156 | 0.0 | 0.0 | 0.00 | 0.00 | 0.00 | ||
| 20260901195846 | 74 | 164 | 0.0 | 0.0 | 0.00 | 0.00 | 0.00 | ||
| 20260901195331 | 74 | 130 | 0.0 | 0.0 | 0.00 | 0.00 | 0.00 | ||
| 20260901194305 | 74 | 164 | 0.0 | 0.0 | 0.00 | 0.00 | 0.00 | ||
| 20260901190122 | 78 | 154 | 0.0 | 0.0 | 0.00 | 0.00 | 0.00 | ||
| 20260901185609 | 79 | 168 | 0.0 | 0.0 | 0.00 | 0.00 | 0.00 | ||
| 20260901183518 | 79 | 324 | 0.0 | 0.0 | 0.00 | 0.00 | 0.00 | ||
| 20260901173756 | 71 | 337 | 0.0 | 0.0 | 0.00 | 0.00 | 0.00 | ||
| 20260901172731 | 69 | 75 | 0.0 | 0.0 | 0.00 | 0.00 | 0.00 | ||
| 20260901172218 | 68 | 67 | 0.0 | 0.0 | 0.00 | 0.00 | 0.00 | ||
| 20260901171152 | 68 | 315 | 0.0 | 0.0 | 0.00 | 0.00 | 0.00 | ||
| 20260901170639 | 67 | 228 | 0.0 | 0.0 | 0.00 | 0.00 | 0.00 | ||
| 20260901170127 | 67 | 352 | 0.0 | 0.0 | 0.00 | 0.00 | 0.00 | ||
| 20260901165614 | 67 | 100 | 0.0 | 0.0 | 0.00 | 0.00 | 0.00 | ||
| 20260901164549 | 66 | 205 | 0.0 | 0.0 | 0.00 | 0.00 | 0.00 | ||
| 20260901074332 | 53 | 337 | 0.0 | 0.0 | 0.00 | 0.00 | 0.00 | ||
| 20260901012255 | 58 | 337 | 0.0 | 0.0 | 0.00 | 0.00 | 0.00 | ||
| 20260901010204 | 58 | 337 | 0.0 | 0.0 | 0.00 | 0.00 | 0.00 | ||
| 20260901002534 | 60 | 101 | 0.0 | 0.0 | 0.00 | 0.00 | 0.00 | ||
| 20260901002021 | 60 | 337 | 0.0 | 0.0 | 0.00 | 0.00 | 0.00 | ||
| 20260901000443 | 60 | 110 | 0.0 | 0.0 | 0.00 | 0.00 | 0.00 | ||
| 20260831235930 | 59 | 337 | 0.0 | 0.0 | 0.00 | 0.00 | 0.00 | ||
| 20260831235417 | 59 | 136 | 0.0 | 0.0 | 0.00 | 0.00 | 0.00 | ||
| 20260831234904 | 59 | 139 | 0.0 | 0.0 | 0.00 | 0.00 | 0.00 | ||
| 20260831234351 | 59 | 337 | 0.0 | 0.0 | 0.00 | 0.00 | 0.00 |